Regional Weather Roundup
Issued by NWS Little Rock, AR

Home | Current Version | Previous Version | Graphics & Text | Print | Product List | Glossary On
Versions: 1 2 3 4 5 6 7 8 9 10 11 12 13 14 15 16 17 18 19 20 21 22 23 24 25 26 27 28 29 30 31 32 33 34 35 36 37 38 39 40 41 42 43 44 45 46 47
000
ASUS44 KLZK 301705
RWRLZK

WEATHER ROUNDUP FOR ARKANSAS
NATIONAL WEATHER SERVICE LITTLE ROCK AR
1200 PM CDT MON MAR 30 2015

NOTE: "FAIR" INDICATES FEW OR NO CLOUDS BELOW 12,000 FEET WITH NO
SIGNIFICANT WEATHER AND/OR OBSTRUCTIONS TO VISIBILITY.

ARZ001-003-010-029-301800-
NORTHWEST ARKANSAS

CITY           SKY/WX    TMP DP  RH WIND       PRES   REMARKS
FAYETTEVILLE   SUNNY     66  40  38 VRB7G17   30.21F
FORT SMITH     SUNNY     67  45  45 NE7       30.22F
HARRISON       SUNNY     61  39  44 S14       30.23F
BENTONVILLE    SUNNY     63  43  48 SE7       30.23F
ROGERS         SUNNY     64  38  38 VRB6      30.23F
SILOAM SPGS    SUNNY     66  41  39 S6        30.23F
HIGHFILL       SUNNY     64  41  42 S7        30.21F
SPRINGDALE     SUNNY     64  43  45 SE8       30.24F
$$

ARZ004-005-016-301800-
NORTH CENTRAL ARKANSAS

CITY           SKY/WX    TMP DP  RH WIND       PRES   REMARKS
BATESVILLE     SUNNY     64  37  36 SE8       30.24F
FLIPPIN        SUNNY     63  36  36 E5        30.22F
MTN HOME       SUNNY     63  32  31 SE10      30.22F
$$

ARZ040-041-301800-
WEST CENTRAL ARKANSAS

CITY           SKY/WX    TMP DP  RH WIND       PRES   REMARKS
MENA           SUNNY     72  46  40 E3        30.21S
MOUNT IDA      SUNNY     69  45  41 E7        30.19F
$$

ARZ009-017-025-026-028-301800-
NORTHEAST ARKANSAS

CITY           SKY/WX    TMP DP  RH WIND       PRES   REMARKS
CORNING          N/A     63  39  42 SE8       30.25S
JONESBORO      SUNNY     62  38  40 SE7       30.25R
NEWPORT        SUNNY     64  42  44 SE12      30.26F
BLYTHEVILLE    SUNNY     64  39  39 VRB6      30.24S
NW BLYTHEVILLE SUNNY     63  37  39 NE5       30.25S
$$

ARZ022-023-033-042-044-301800-
CENTRAL ARKANSAS

CITY           SKY/WX    TMP DP  RH WIND       PRES   REMARKS
LITTLE ROCK    SUNNY     68  44  42 VRB7      30.24S
N LITTLE ROCK  SUNNY     67  47  48 SE6       30.24S
JACKSONVILLE   SUNNY     67  45  44 VRB5      30.23F
SEARCY         SUNNY     66  43  43 VRB6      30.26F
HOT SPRINGS    SUNNY     68  44  42 E6        30.22F
RUSSELLVILLE   SUNNY     65  45  48 VRB7      30.22F
CLINTON        FAIR      64  37  36 NE5       30.25F
$$

ARZ036-301800-
EAST ARKANSAS

CITY           SKY/WX    TMP DP  RH WIND       PRES   REMARKS
WEST MEMPHIS   SUNNY     64  42  44 E7        30.22F
$$

ARZ050-053-066-070-073-301800-
SOUTHWEST ARKANSAS

CITY           SKY/WX    TMP DP  RH WIND       PRES   REMARKS
ARKADELPHIA    FAIR      71  49  45 E6        30.23F
CAMDEN         MOSUNNY   73  46  38 MISG      30.22F
TEXARKANA      CLOUDY    70  58  65 S7        30.20F
EL DORADO      PTSUNNY   71  50  47 SE8       30.21F
DE QUEEN       SUNNY     72  49  44 SE8       30.18F
$$

ARZ056-057-069-301800-
SOUTHEAST ARKANSAS

CITY           SKY/WX    TMP DP  RH WIND       PRES   REMARKS
PINE BLUFF     SUNNY     67  48  50 E6        30.23F
STUTTGART      SUNNY     66  45  45 NE7       30.24F
MONTICELLO     SUNNY     71  47  42 NE9       30.22F

$$




USA.gov is the U.S. government's official web portal to all federal, state and local government web resources and services.